Volver al catálogo

TJS-20

ActivoMilitarGEO
NORAD 66142·PAYLOAD·🇨🇳 China

Lanzado Oct 23, 2025 desde Wenchang Space Launch Site

Loading…

TLE

ActualizadoSource: Space-Track

Época: Sep 14, 2026, 03:50 UTC

1 66142U 25238A   26257.15981046  .00000013  00000-0  00000-0 0  9999
2 66142   5.2776 299.2436 0003123 233.5327 300.3094  1.00269259  3227

Sigue TJS-20 en tiempo real con AllMySat

Download on the App Store